Weather History for New York JFK, NY

Change the Weather History Date:

Sunday, November 4, 2012

  Actual Average Record
Temperature  
Mean Temperature 46 °F 51 °F  
Max Temperature 53 °F 58 °F 77 °F (1975)
Min Temperature 39 °F 44 °F 34 °F (1966)
Degree Days  
Heating Degree Days 19 14  
Month to date heating degree days 69 54  
Since 1 July heating degree days 273 353  
Cooling Degree Days 0 0  
Month to date cooling degree days 0 0  
Year to date cooling degree days 1229 1005  
Moisture  
Dew Point 30 °F    
Average Humidity 57    
Maximum Humidity 70    
Minimum Humidity 44    
Precipitation  
Precipitation 0.00 in 0.10 in 1.33 in (2004)
Month to date precipitation T 0.43  
Year to date precipitation 33.35 36.51  
Snow  
Snow 0.00 in 0.00 in - ()
Month to date snowfall 0.0 0.0  
Since 1 July snowfall 0.0 0.0  
Snow Depth 0.00 in    
Sea Level Pressure  
Sea Level Pressure 29.97 in    
Wind  
Wind Speed 13 mph (NW)    
Max Wind Speed 20 mph    
Max Gust Speed 24 mph    
Visibility 10 miles    
Events      
T = Trace of Precipitation, MM = Missing Value Source: NWS Daily Summary

Daily Weather History Graph

Daily Weather History Graph

Search for Another Location

Airport:

Trip Planner

Search our weather history database for the weather conditions in past years. The results will help you decide how hot, cold, wet, or windy it might be!

Date:

Astronomy

Nov. 04, 2012 Rise Set
Actual Time 6:29 AM EST 4:47 PM EST
Civil Twilight 6:00 AM EST 5:16 PM EST
Nautical Twilight 5:28 AM EST 5:48 PM EST
Astronomical Twilight 4:56 AM EST 6:20 PM EST
Moon 9:22 PM EST (11/4) 11:11 AM EST (11/4)
Length of Visible Light 11h 15m
Length of Day
10h 18m
Waning Gibbous, 72% of the Moon is Illuminated
Nov 4
Waning Gibbous
Nov 6
Last Quarter
Nov 13
New
Nov 20
First Quarter
Nov 28
Full

Hourly Weather History & Observations

Time (EST) Temp. Windchill Dew Point Humidity Pressure Visibility Wind Dir Wind Speed Gust Speed Precip Events Conditions
12:51 AM 41.0 °F 33.9 °F 28.9 °F 62% 29.97 in 10.0 mi WNW 12.7 mph 18.4 mph N/A   Partly Cloudy
1:51 AM 41.0 °F 32.8 °F 28.9 °F 62% 29.96 in 10.0 mi NW 16.1 mph - N/A   Clear
1:51 AM 41.0 °F 34.3 °F 28.9 °F 62% 29.96 in 10.0 mi NW 11.5 mph 21.9 mph N/A   Clear
2:51 AM 41.0 °F 34.3 °F 28.9 °F 62% 29.95 in 10.0 mi NW 11.5 mph - N/A   Partly Cloudy
3:51 AM 39.9 °F 33.4 °F 28.9 °F 65% 29.95 in 10.0 mi NW 10.4 mph - N/A   Partly Cloudy
4:51 AM 39.9 °F 33.4 °F 30.0 °F 68% 29.97 in 10.0 mi West 10.4 mph - N/A   Clear
5:51 AM 39.9 °F 32.9 °F 30.0 °F 68% 29.98 in 10.0 mi NW 11.5 mph - N/A   Partly Cloudy
6:51 AM 39.9 °F 32.1 °F 30.0 °F 68% 29.99 in 10.0 mi NW 13.8 mph - N/A   Partly Cloudy
7:51 AM 42.1 °F 34.9 °F 30.0 °F 62% 29.99 in 10.0 mi NW 13.8 mph - N/A   Scattered Clouds
8:51 AM 45.0 °F 39.3 °F 30.9 °F 58% 30.00 in 10.0 mi NNW 11.5 mph - N/A   Scattered Clouds
9:51 AM 46.9 °F - 32.0 °F 56% 29.99 in 10.0 mi WNW 10.4 mph - N/A   Scattered Clouds
10:51 AM 48.9 °F - 30.9 °F 50% 29.97 in 10.0 mi NW 10.4 mph - N/A   Scattered Clouds
11:51 AM 51.1 °F - 32.0 °F 48% 29.96 in 10.0 mi NW 8.1 mph - N/A   Scattered Clouds
12:51 PM 51.1 °F - 30.9 °F 46% 29.94 in 10.0 mi NW 11.5 mph - N/A   Scattered Clouds
1:51 PM 52.0 °F - 30.9 °F 45% 29.93 in 10.0 mi WNW 11.5 mph 17.3 mph N/A   Scattered Clouds
2:51 PM 51.1 °F - 30.9 °F 46% 29.94 in 10.0 mi WNW 12.7 mph 21.9 mph N/A   Mostly Cloudy
3:51 PM 50.0 °F - 30.0 °F 46% 29.94 in 10.0 mi West 15.0 mph 23.0 mph N/A   Mostly Cloudy
4:51 PM 46.9 °F - 28.9 °F 50% 29.95 in 10.0 mi WNW 15.0 mph - N/A   Mostly Cloudy
5:51 PM 45.0 °F 39.3 °F 28.9 °F 53% 29.96 in 10.0 mi WNW 11.5 mph - N/A   Mostly Cloudy
6:51 PM 46.0 °F 39.6 °F 30.0 °F 54% 29.98 in 10.0 mi NW 15.0 mph - N/A   Mostly Cloudy
7:51 PM 45.0 °F 37.9 °F 30.0 °F 56% 29.98 in 10.0 mi NW 16.1 mph 23.0 mph N/A   Overcast
8:51 PM 45.0 °F 37.9 °F 30.0 °F 56% 29.99 in 10.0 mi NNW 16.1 mph - N/A   Overcast
9:51 PM 45.0 °F 38.2 °F 30.0 °F 56% 29.99 in 10.0 mi North 15.0 mph - N/A   Overcast
10:51 PM 44.1 °F 37.7 °F 30.0 °F 58% 29.97 in 10.0 mi NNW 12.7 mph - N/A   Mostly Cloudy